EST,Max TemperatureF,Mean TemperatureF,Min TemperatureF,Max Dew PointF,MeanDew PointF,Min DewpointF,Max Humidity, Mean Humidity, Min Humidity, Max Sea Level PressureIn, Mean Sea Level PressureIn, Min Sea Level PressureIn, Max VisibilityMiles, Mean VisibilityMiles, Min VisibilityMiles, Max Wind SpeedMPH, Mean Wind SpeedMPH, Max Gust SpeedMPH,PrecipitationIn, CloudCover, Events, WindDirDegrees
2014-2-1,48,37,25,33,25,17,82,59,36,30.31,30.20,30.00,10,10,8,15,3,23,0.00,5,,129
2014-2-2,57,43,28,38,31,27,92,64,35,30.07,29.99,29.93,10,8,6,12,3,26,0.00,7,,46
2014-2-3,46,39,31,39,33,24,100,88,75,30.34,30.11,30.04,10,6,2,18,8,24,1.34,8,Rain-Snow,7
2014-2-4,35,30,25,28,22,17,81,66,51,30.48,30.34,30.16,10,8,1,12,4,17,0.03,7,Rain,44
2014-2-5,41,36,30,34,31,20,100,78,56,30.15,29.89,29.69,10,4,1,20,9,39,0.57,7,Rain,341
2014-2-6,35,31,26,20,15,11,69,55,41,30.35,30.29,30.16,10,10,10,20,7,28,0.00,6,,319
2014-2-7,42,32,22,21,19,17,81,61,40,30.35,30.31,30.26,10,10,10,13,3,18,0.00,4,,288
2014-2-8,32,27,22,17,12,8,81,60,39,30.36,30.29,30.20,10,10,7,9,2,16,T,6,,71
2014-2-9,31,26,20,27,20,11,92,70,47,30.21,30.09,30.00,10,5,0,12,3,18,0.05,7,Fog-Snow,113
2014-2-10,30,25,19,23,11,7,92,67,42,30.34,30.22,30.06,10,10,7,17,7,23,0.00,5,,316
2014-2-11,30,22,14,8,6,4,67,49,31,30.48,30.41,30.33,10,10,10,13,4,20,0.00,2,,332
2014-2-12,27,21,15,21,12,2,88,69,50,30.54,30.39,30.16,10,7,1,15,8,20,0.09,7,Snow,52
2014-2-13,37,31,24,34,29,21,92,90,88,30.14,29.63,29.27,10,2,0,24,13,31,1.77,8,Fog-Rain-Snow,10
2014-2-14,46,38,30,30,24,19,85,61,37,29.75,29.58,29.32,10,10,10,28,8,37,0.00,4,,263
2014-2-15,36,32,27,31,25,11,89,69,49,29.93,29.70,29.60,10,7,2,25,12,33,0.06,7,Rain-Snow,348
2014-2-16,36,29,21,19,13,7,63,51,38,30.21,30.05,29.94,10,10,7,20,8,29,T,6,Snow,299
2014-2-17,34,27,19,18,10,3,81,55,28,30.46,30.35,30.24,10,10,10,12,5,17,0.00,4,,324
2014-2-18,51,39,26,27,25,18,92,64,35,30.26,30.12,30.02,10,7,0,15,4,21,0.09,5,Fog-Snow,163
2014-2-19,57,42,27,45,33,25,92,67,42,30.14,29.89,29.70,10,7,2,23,6,33,0.11,5,Rain,267
2014-2-20,52,40,28,35,28,21,92,62,32,30.26,30.15,29.96,10,10,10,14,4,18,0.00,7,,136
2014-2-21,63,48,32,55,42,32,100,83,66,29.97,29.79,29.63,10,6,0,30,3,38,0.36,7,Fog-Rain,15
2014-2-22,61,44,27,31,26,20,96,59,22,30.11,30.04,29.99,10,10,10,17,5,25,0.00,2,Fog,220
2014-2-23,60,52,43,36,28,25,70,49,28,30.01,29.95,29.88,10,10,10,15,7,21,T,5,Rain,290
2014-2-24,44,35,25,36,16,7,79,51,22,30.14,30.02,29.93,10,10,9,28,12,38,0.01,2,Rain,287
2014-2-25,35,29,23,27,20,13,92,70,47,30.14,30.07,30.00,10,7,1,14,4,20,0.06,6,Snow,286
2014-2-26,36,28,20,27,17,2,92,62,32,30.01,29.94,29.87,10,6,0,22,7,30,0.04,5,Snow,279
2014-2-27,38,26,14,16,7,-5,80,53,26,30.17,29.83,29.69,10,10,10,30,11,39,0.00,1,,292
2014-2-28,27,19,11,3,-7,-14,47,33,19,30.44,30.37,30.21,10,10,10,15,4,21,0.00,1,,16